NOAA NWS Hourly Roundups by Site

Regional Weather Roundup for Green Bay, WI

To Select Another Site Choose from List

Select Site:  

000
ASUS43 KGRB 290010
RWRGRB

NORTH-CENTRAL AND NORTHEAST WISCONSIN REGIONAL WEATHER ROUNDUP
NATIONAL WEATHER SERVICE GREEN BAY WI
600 PM CST SAT JAN 28 2023

WIZ005-009-010>012-018-019-290100-
NORTH CENTRAL WISCONSIN

CITY           SKY/WX    TMP DP  RH WIND       PRES   REMARKS
IRONWOOD       MOCLDY    -2  -8  76 CALM      30.23R
MANITOWISH WTR MOCLDY     3  -2  81 CALM      30.16S
ARBOR VITAE    MOCLDY     6   1  78 CALM      30.15S
EAGLE RIVER    MOCLDY     8   0  67 N5        30.14F WCI   0
LAND O LAKES   MOCLDY     5   0  78 CALM      30.17S
RHINELANDER    MOCLDY     9  -1  64 CALM      30.15R
PHILLIPS       MOCLDY     6  -1  73 NW3       30.17S
ANTIGO         MOCLDY    10   3  71 N6        30.15R WCI   1
TOMAHAWK       MOCLDY    10   2  71 CALM      30.16S
MERRILL        MOCLDY    10   2  68 N3        30.16S
$$

WIZ013-073-290100-
NORTHEAST WISCONSIN

CITY           SKY/WX    TMP DP  RH WIND       PRES   REMARKS
IRON MOUNTAIN  MOCLDY    11   1  64 N3        30.17F
MARINETTE      MOCLDY    17   6  62 MISG      30.23R
OCONTO         MOCLDY    15   6  65 CALM      30.22S
$$

WIZ017-030-035>037-045-290100-
CENTRAL WISCONSIN

CITY           SKY/WX    TMP DP  RH WIND       PRES   REMARKS
MEDFORD        MOCLDY     8   1  73 N6        30.15S WCI  -2
WAUSAU         MOCLDY    13   1  59 N5        30.15S WCI   5
MOSINEE        PTCLDY    10   1  67 N5        30.16F WCI   2
MARSHFIELD     CLOUDY    10   1  67 N6        30.16S WCI   0
WISC RAPIDS    CLOUDY    12   2  64 N7        30.17F WCI   1
STEVENS POINT  MOCLDY    15   0  52 N3        30.17S
WAUPACA        CLOUDY    18   5  58 NE3       30.19F
SHAWANO        MOCLDY    17   8  67 CALM      30.20S
CLINTONVILLE   MOCLDY    15   5  63 E3        30.21S
WAUTOMA        CLOUDY    15   6  67 NE5       30.18F WCI   8
$$

WIZ038-039-048-051-290100-
FOX VALLEY

CITY           SKY/WX    TMP DP  RH WIND       PRES   REMARKS
NWS GREEN BAY  CLOUDY    17   8  67 NE7       30.20S WCI   8
APPLETON       CLOUDY    16   3  57 NE7       30.16F WCI   6
OSHKOSH        CLOUDY    16   6  65 NE8       30.18S WCI   5
FOND DU LAC    CLOUDY    17   7  64 NE10      30.17F WCI   5
$$

WIZ022-050-052-290100-
EAST CENTRAL WISCONSIN

CITY           SKY/WX    TMP DP  RH WIND       PRES   REMARKS
EPHRAIM        FAIR      16   7  69 E3        30.21R
WASHINGTON ISL FAIR      16   6  64 NE7       30.22S WCI   6
STURGEON BAY   MOCLDY    16   7  67 NE6       30.22S WCI   7
MANITOWOC      CLOUDY    17   9  70 N5        30.21S WCI  10
SHEBOYGAN      CLOUDY    18   9  68 NE6       30.18F WCI  10
$$

LMZ563-521-522-541>543-290100-
LAKESHORE

STATION/POSITION TIME  TEMP    WIND        PRES    VSBY  WAVE
                       AIR SEA DIR/SP/G                  HT/PER
                 (UTC) (F)     (DEG/KT/KT) (MB)    (MI)  (FT/S)
SHEBOYGAN LKSHOR 0000   20      20/ 13/ 15 1023.3F
KEWAUNEE LKSHORE 2324   18     360/  5/ 10 1022.0
NORTHPORT PIER   2300   18     360/  7/ 11   N/A
CHAMBERS ISLAND  2340   18     330/ 10/ 12   N/A
GREEN BAY WEST   2324   18      40/  8/ 10 1021.9
MENOMINEE LKSHOR 2324   18 35   20/  9/ 12 1022.1
$$


 

View Past Reports for Green Bay, WI.

Products Courtesy of NOAA-NWS
NWS Information Parsing Script by Ken True at Saratoga Weather - Script by SE Lincoln Weather.